Weather History for Nassau, Bahamas

Change the Weather History Date:

Thursday, October 25, 2012

  Actual Average Record
Temperature  
Mean Temperature 77 °F -  
Max Temperature 79 °F 82 °F 89 °F (2002)
Min Temperature 75 °F 69 °F 32 °F (2005)
Cooling Degree Days 12    
Growing Degree Days 27 (Base 50)    
Moisture  
Dew Point 72 °F    
Average Humidity 86    
Maximum Humidity 94    
Minimum Humidity 68    
Precipitation  
Precipitation 0.87 in 0.10 in - ()
Sea Level Pressure  
Sea Level Pressure 29.56 in    
Wind  
Wind Speed 20 mph ()    
Max Wind Speed 36 mph    
Max Gust Speed 44 mph    
Visibility 5.7 miles    
Events Rain    
Averages and records for this station are not official NWS values.
T = Trace of Precipitation, MM = Missing Value Source: Averaged Metar Reports

Daily Weather History Graph

Daily Weather History Graph

Search for Another Location

Airport:

Trip Planner

Search our weather history database for the weather conditions in past years. The results will help you decide how hot, cold, wet, or windy it might be!

Date:

Astronomy

Oct. 25, 2012 Rise Set
Actual Time 7:13 AM EDT 6:33 PM EDT
Civil Twilight 6:50 AM EDT 6:57 PM EDT
Nautical Twilight 6:23 AM EDT 7:24 PM EDT
Astronomical Twilight 5:56 AM EDT 7:50 PM EDT
Moon 3:59 PM EDT (10/25) 3:30 AM EDT (10/25)
Length of Visible Light 12h 07m
Length of Day
11h 20m
Waxing Gibbous, 84% of the Moon is Illuminated
Oct 25
Waxing Gibbous
Oct 29
Full
Nov 6
Last Quarter
Nov 13
New
Nov 20
First Quarter

Hourly Weather History & Observations

Time (EDT) Temp. Dew Point Humidity Pressure Visibility Wind Dir Wind Speed Gust Speed Precip Events Conditions
12:00 AM 78.8 °F 69.8 °F 74% 29.77 in 6.2 mi ENE 15.0 mph - N/A   Overcast
1:00 AM 77.0 °F 69.8 °F 78% 29.76 in 6.2 mi NE 19.6 mph - N/A Rain Light Rain
2:00 AM 79 °F 70 °F 68% 29.74 in 7 mi NE 18.4 mph - - Rain Light Rain
2:00 AM 78.8 °F 69.8 °F 74% 29.74 in 6.2 mi NE 18.4 mph - N/A Rain Light Rain
3:00 AM 75.2 °F 71.6 °F 89% 29.69 in 6.2 mi NE 23.0 mph - N/A Rain Rain
4:00 AM 77.0 °F 69.8 °F 78% 29.67 in 6.2 mi NE 19.6 mph - N/A Rain Light Rain
5:00 AM 77.0 °F 69.8 °F 78% 29.66 in 6.2 mi NE 18.4 mph - N/A Rain Light Rain
6:00 AM 75.2 °F 69.8 °F 83% 29.65 in 6.2 mi NNE 26.5 mph - N/A Rain Light Rain
7:00 AM 75.2 °F 69.8 °F 83% 29.65 in 6.2 mi NNE 31.1 mph - N/A Rain Light Rain
8:00 AM 76 °F - % 29.65 in 7 mi NE 24.2 mph - - Rain Light Rain
8:00 AM 75.2 °F 73.4 °F 94% 29.64 in 6.2 mi NE 24.2 mph - N/A Rain Light Rain
9:00 AM 75.2 °F 71.6 °F 89% 29.64 in 6.2 mi NNE 31.1 mph - N/A Rain Light Rain
10:00 AM 75.2 °F 71.6 °F 89% 29.63 in 6.2 mi NE 33.4 mph - N/A Rain Light Rain
11:00 AM 77.0 °F 73.4 °F 89% 29.62 in 6.2 mi NE 26.5 mph - N/A Rain Light Rain
12:00 PM 75.2 °F 71.6 °F 89% 29.59 in 6.2 mi NNE 17.3 mph - N/A Rain Light Rain
1:00 PM 75.2 °F 71.6 °F 89% 29.54 in 6.2 mi NE 20.7 mph - N/A Rain Light Rain
2:00 PM 77 °F 74 °F 90% 29.49 in 4 mi NNE 19.6 mph - - Rain Light Rain
2:00 PM 77.0 °F 75.2 °F 94% 29.49 in 6.2 mi NNE 19.6 mph - N/A Rain Light Rain
3:00 PM 75.2 °F 73.4 °F 94% 29.47 in 1.0 mi NNE 20.7 mph - N/A Rain Heavy Rain
3:20 PM 75.2 °F 73.4 °F 94% 29.44 in 6.2 mi NNE 17.3 mph - N/A Rain Light Rain
4:00 PM 77.0 °F 73.4 °F 89% 29.43 in 6.2 mi NNE 23.0 mph - N/A Rain Light Rain
5:00 PM 77 °F 75 °F 91% 29.42 in 4 mi NNE 24.2 mph - - Rain Light Rain
5:00 PM 77.0 °F 75.2 °F 94% 29.41 in 3.7 mi NNE 24.2 mph - N/A Rain Light Rain
6:00 PM 77.0 °F 73.4 °F 89% 29.39 in 5.6 mi NNE 24.2 mph - N/A Rain Light Rain
7:00 PM 77.0 °F 73.4 °F 89% 29.37 in 5.6 mi NNE 26.5 mph - N/A Rain Light Rain
8:00 PM 78 °F 75 °F 88% 32.31 in 4 mi NNE 4.6 mph - - Rain Light Rain
8:00 PM 78.8 °F 75.2 °F 89% 29.36 in 5.6 mi NNE 27.6 mph - N/A Rain Light Rain
9:00 PM 78.8 °F 73.4 °F 83% 29.32 in 5.6 mi North 32.2 mph 43.7 mph N/A Rain Light Rain
10:00 PM 77.0 °F 73.4 °F 89% 29.31 in 5.6 mi NNW 35.7 mph - N/A Rain Light Rain